Year,Month,Day,Hour,Minute,Value (Times are PST for temperature in C)
2011,07,30,00,02,15.90
2011,07,30,00,03,15.90
2011,07,30,00,04,15.90
2011,07,30,00,05,15.90
2011,07,30,00,06,15.90
2011,07,30,00,08,15.90
2011,07,30,00,09,15.90
2011,07,30,00,10,15.90
2011,07,30,00,11,15.80
2011,07,30,00,13,15.80
2011,07,30,00,14,15.80
2011,07,30,00,15,15.80
2011,07,30,00,16,15.80
2011,07,30,00,17,15.80
2011,07,30,00,18,15.80
2011,07,30,00,20,15.80
2011,07,30,00,21,15.80
2011,07,30,00,22,15.80
2011,07,30,00,23,15.70
2011,07,30,00,24,15.70
2011,07,30,00,25,15.70
2011,07,30,00,26,15.70
2011,07,30,00,28,15.70
2011,07,30,00,29,15.70
2011,07,30,00,30,15.60
2011,07,30,00,31,15.60
2011,07,30,00,33,15.60
2011,07,30,00,34,15.60
2011,07,30,00,35,15.60
2011,07,30,00,37,15.60
2011,07,30,00,38,15.50
2011,07,30,00,39,15.50
2011,07,30,00,40,15.50
2011,07,30,00,42,15.50
2011,07,30,00,43,15.40
2011,07,30,00,44,15.40
2011,07,30,00,45,15.40
2011,07,30,00,46,15.40
2011,07,30,00,47,15.40
2011,07,30,00,48,15.40
2011,07,30,00,49,15.30
2011,07,30,00,51,15.40
2011,07,30,00,52,15.40
2011,07,30,00,53,15.40
2011,07,30,00,54,15.40
2011,07,30,00,55,15.30
2011,07,30,00,56,15.30
2011,07,30,00,57,15.30
2011,07,30,00,58,15.30
2011,07,30,01,00,15.30
2011,07,30,01,01,15.30
2011,07,30,01,02,15.30
2011,07,30,01,03,15.30
2011,07,30,01,04,15.30
2011,07,30,01,05,15.30
2011,07,30,01,06,15.30
2011,07,30,01,07,15.30
2011,07,30,01,09,15.30
2011,07,30,01,10,15.20
2011,07,30,01,11,15.20
2011,07,30,01,12,15.20
2011,07,30,01,13,15.20
2011,07,30,01,14,15.20
2011,07,30,01,15,15.10
2011,07,30,01,16,15.10
2011,07,30,01,17,15.00
2011,07,30,01,19,14.90
2011,07,30,01,20,14.90
2011,07,30,01,21,14.80
2011,07,30,01,22,14.80
2011,07,30,01,24,14.80
2011,07,30,01,25,14.80
2011,07,30,01,26,14.70
2011,07,30,01,27,14.70
2011,07,30,01,28,14.70
2011,07,30,01,29,14.60
2011,07,30,01,30,14.60
2011,07,30,01,31,14.50
2011,07,30,01,34,14.40
2011,07,30,01,35,14.30
2011,07,30,01,36,14.30
2011,07,30,01,37,14.30
2011,07,30,01,39,14.20
2011,07,30,01,40,14.20
2011,07,30,01,41,14.20
2011,07,30,01,42,14.10
2011,07,30,01,44,14.10
2011,07,30,01,45,14.10
2011,07,30,01,46,14.00
2011,07,30,01,47,14.00
2011,07,30,01,49,13.90
2011,07,30,01,50,13.90
2011,07,30,01,51,13.80
2011,07,30,01,52,13.80
2011,07,30,01,53,13.80
2011,07,30,01,55,13.80
2011,07,30,01,56,13.70
2011,07,30,01,57,13.70
2011,07,30,01,58,13.70
2011,07,30,02,00,13.70
2011,07,30,02,01,13.70
2011,07,30,02,02,13.70
2011,07,30,02,03,13.70
2011,07,30,02,04,13.60
2011,07,30,02,06,13.60
2011,07,30,02,07,13.60
2011,07,30,02,08,13.60
2011,07,30,02,10,13.50
2011,07,30,02,11,13.50
2011,07,30,02,12,13.50
2011,07,30,02,13,13.50
2011,07,30,02,15,13.50
2011,07,30,02,16,13.50
2011,07,30,02,17,13.50
2011,07,30,02,19,13.50
2011,07,30,02,20,13.50
2011,07,30,02,21,13.50
2011,07,30,02,22,13.50
2011,07,30,02,23,13.50
2011,07,30,02,25,13.50
2011,07,30,02,26,13.50
2011,07,30,02,27,13.50
2011,07,30,02,28,13.50
2011,07,30,02,29,13.50
2011,07,30,02,30,13.50
2011,07,30,02,31,13.50
2011,07,30,02,32,13.50
2011,07,30,02,33,13.50
2011,07,30,02,35,13.50
2011,07,30,02,36,13.50
2011,07,30,02,37,13.50
2011,07,30,02,38,13.50
2011,07,30,02,40,13.50
2011,07,30,02,41,13.40
2011,07,30,02,42,13.40
2011,07,30,02,43,13.40
2011,07,30,02,44,13.40
2011,07,30,02,46,13.40
2011,07,30,02,47,13.40
2011,07,30,02,48,13.40
2011,07,30,02,50,13.30
2011,07,30,02,51,13.30
2011,07,30,02,52,13.30
2011,07,30,02,53,13.30
2011,07,30,02,55,13.30
2011,07,30,02,56,13.30
2011,07,30,02,57,13.30
2011,07,30,02,58,13.30
2011,07,30,02,59,13.30
2011,07,30,03,01,13.20
2011,07,30,03,02,13.20
2011,07,30,03,03,13.20
2011,07,30,03,04,13.20
2011,07,30,03,06,13.20
2011,07,30,03,07,13.20
2011,07,30,03,08,13.20
2011,07,30,03,09,13.20
2011,07,30,03,11,13.20
2011,07,30,03,12,13.20
2011,07,30,03,13,13.20
2011,07,30,03,14,13.20
2011,07,30,03,16,13.20
2011,07,30,03,17,13.20
2011,07,30,03,18,13.20
2011,07,30,03,19,13.10
2011,07,30,03,21,13.10
2011,07,30,03,22,13.10
2011,07,30,03,23,13.10
2011,07,30,03,24,13.10
2011,07,30,03,26,13.10
2011,07,30,03,27,13.10
2011,07,30,03,28,13.10
2011,07,30,03,29,13.10
2011,07,30,03,31,13.10
2011,07,30,03,32,13.10
2011,07,30,03,33,13.10
2011,07,30,03,34,13.10
2011,07,30,03,36,13.10
2011,07,30,03,37,13.10
2011,07,30,03,38,13.00
2011,07,30,03,39,13.00
2011,07,30,03,41,12.90
2011,07,30,03,42,12.90
2011,07,30,03,43,12.90
2011,07,30,03,44,12.90
2011,07,30,03,46,12.90
2011,07,30,03,47,12.80
2011,07,30,03,48,12.80
2011,07,30,03,49,12.80
2011,07,30,03,51,12.80
2011,07,30,03,52,12.80
2011,07,30,03,53,12.80
2011,07,30,03,54,12.70
2011,07,30,03,55,12.70
2011,07,30,03,57,12.70
2011,07,30,03,58,12.70
2011,07,30,03,59,12.70
2011,07,30,04,00,12.70
2011,07,30,04,01,12.70
2011,07,30,04,03,12.70
2011,07,30,04,04,12.70
2011,07,30,04,05,12.70
2011,07,30,04,06,12.60
2011,07,30,04,08,12.60
2011,07,30,04,09,12.60
2011,07,30,04,10,12.60
2011,07,30,04,11,12.60
2011,07,30,04,12,12.60
2011,07,30,04,13,12.50
2011,07,30,04,15,12.50
2011,07,30,04,16,12.40
2011,07,30,04,17,12.40
2011,07,30,04,18,12.40
2011,07,30,04,20,12.40
2011,07,30,04,21,12.40
2011,07,30,04,22,12.40
2011,07,30,04,23,12.40
2011,07,30,04,24,12.40
2011,07,30,04,25,12.40
2011,07,30,04,26,12.40
2011,07,30,04,27,12.40
2011,07,30,04,29,12.40
2011,07,30,04,30,12.40
2011,07,30,04,31,12.40
2011,07,30,04,32,12.40
2011,07,30,04,34,12.40
2011,07,30,04,35,12.40
2011,07,30,04,36,12.40
2011,07,30,04,38,12.30
2011,07,30,04,39,12.30
2011,07,30,04,40,12.30
2011,07,30,04,41,12.30
2011,07,30,04,42,12.30
2011,07,30,04,44,12.30
2011,07,30,04,45,12.30
2011,07,30,04,46,12.30
2011,07,30,04,47,12.30
2011,07,30,04,49,12.20
2011,07,30,04,50,12.20
2011,07,30,04,51,12.20
2011,07,30,04,53,12.20
2011,07,30,04,54,12.20
2011,07,30,04,55,12.10
2011,07,30,04,57,12.10
2011,07,30,04,58,12.10
2011,07,30,04,59,12.10
2011,07,30,05,00,12.00
2011,07,30,05,01,12.00
2011,07,30,05,03,12.00
2011,07,30,05,04,11.90
2011,07,30,05,05,11.90
2011,07,30,05,06,11.90
2011,07,30,05,08,11.90
2011,07,30,05,09,11.90
2011,07,30,05,10,11.90
2011,07,30,05,11,11.90
2011,07,30,05,12,11.90
2011,07,30,05,14,11.90
2011,07,30,05,15,11.90
2011,07,30,05,16,11.80
2011,07,30,05,17,11.80
2011,07,30,05,19,11.80
2011,07,30,05,20,11.80
2011,07,30,05,21,11.80
2011,07,30,05,22,11.80
2011,07,30,05,23,11.80
2011,07,30,05,25,11.80
2011,07,30,05,26,11.80
2011,07,30,05,27,11.80
2011,07,30,05,28,11.80
2011,07,30,05,30,11.80
2011,07,30,05,31,11.80
2011,07,30,05,32,11.80
2011,07,30,05,33,11.80
2011,07,30,05,35,11.80
2011,07,30,05,36,11.80
2011,07,30,05,37,11.80
2011,07,30,05,38,11.80
2011,07,30,05,40,11.80
2011,07,30,05,41,11.80
2011,07,30,05,42,11.80
2011,07,30,05,44,11.80
2011,07,30,05,45,11.70
2011,07,30,05,46,11.70
2011,07,30,05,47,11.70
2011,07,30,05,48,11.70
2011,07,30,05,49,11.70
2011,07,30,05,50,11.70
2011,07,30,05,51,11.70
2011,07,30,05,52,11.70
2011,07,30,05,53,11.70
2011,07,30,05,54,11.70
2011,07,30,05,55,11.70
2011,07,30,05,56,11.70
2011,07,30,05,57,11.70
2011,07,30,05,58,11.70
2011,07,30,05,59,11.70
2011,07,30,06,00,11.70
2011,07,30,06,01,11.70
2011,07,30,06,02,11.70
2011,07,30,06,03,11.70
2011,07,30,06,04,11.70
2011,07,30,06,05,11.70
2011,07,30,06,06,11.70
2011,07,30,06,07,11.70
2011,07,30,06,09,11.70
2011,07,30,06,10,11.70
2011,07,30,06,11,11.70
2011,07,30,06,12,11.70
2011,07,30,06,14,11.70
2011,07,30,06,15,11.60
2011,07,30,06,16,11.60
2011,07,30,06,17,11.70
2011,07,30,06,19,11.60
2011,07,30,06,20,11.60
2011,07,30,06,21,11.60
2011,07,30,06,22,11.60
2011,07,30,06,24,11.60
2011,07,30,06,25,11.60
2011,07,30,06,26,11.60
2011,07,30,06,27,11.60
2011,07,30,06,29,11.60
2011,07,30,06,30,11.60
2011,07,30,06,31,11.70
2011,07,30,06,32,11.60
2011,07,30,06,33,11.60
2011,07,30,06,34,11.60
2011,07,30,06,35,11.60
2011,07,30,06,36,11.60
2011,07,30,06,37,11.60
2011,07,30,06,38,11.60
2011,07,30,06,39,11.60
2011,07,30,06,40,11.60
2011,07,30,06,41,11.60
2011,07,30,06,42,11.70
2011,07,30,06,43,11.70
2011,07,30,06,45,11.70
2011,07,30,06,46,11.70
2011,07,30,06,47,11.80
2011,07,30,06,49,11.80
2011,07,30,06,50,11.80
2011,07,30,06,51,11.80
2011,07,30,06,52,11.80
2011,07,30,06,53,11.80
2011,07,30,06,54,11.80
2011,07,30,06,55,11.80
2011,07,30,06,56,11.80
2011,07,30,06,57,11.80
2011,07,30,06,58,11.80
2011,07,30,06,59,11.80
2011,07,30,07,00,11.80
2011,07,30,07,01,11.80
2011,07,30,07,02,11.80
2011,07,30,07,03,11.80
2011,07,30,07,04,11.80
2011,07,30,07,05,11.90
2011,07,30,07,06,11.90
2011,07,30,07,07,11.90
2011,07,30,07,08,11.90
2011,07,30,07,09,11.90
2011,07,30,07,10,11.90
2011,07,30,07,11,12.00
2011,07,30,07,12,12.00
2011,07,30,07,13,12.10
2011,07,30,07,14,12.10
2011,07,30,07,15,12.20
2011,07,30,07,16,12.20
2011,07,30,07,17,12.20
2011,07,30,07,18,12.30
2011,07,30,07,19,12.30
2011,07,30,07,20,12.40
2011,07,30,07,21,12.40
2011,07,30,07,23,12.60
2011,07,30,07,24,12.60
2011,07,30,07,25,12.70
2011,07,30,07,26,12.80
2011,07,30,07,27,12.80
2011,07,30,07,28,12.90
2011,07,30,07,29,13.10
2011,07,30,07,30,13.20
2011,07,30,07,31,13.30
2011,07,30,07,33,13.30
2011,07,30,07,34,13.60
2011,07,30,07,35,13.70
2011,07,30,07,36,13.80
2011,07,30,07,38,13.80
2011,07,30,07,39,14.00
2011,07,30,07,40,14.10
2011,07,30,07,41,14.20
2011,07,30,07,42,14.30
2011,07,30,07,44,14.30
2011,07,30,07,45,14.40
2011,07,30,07,46,14.50
2011,07,30,07,47,14.60
2011,07,30,07,48,14.70
2011,07,30,07,49,14.70
2011,07,30,07,50,14.80
2011,07,30,07,51,14.90
2011,07,30,07,52,14.90
2011,07,30,07,53,14.90
2011,07,30,07,54,15.00
2011,07,30,07,55,15.10
2011,07,30,07,56,15.10
2011,07,30,07,57,15.10
2011,07,30,07,58,15.10
2011,07,30,07,59,15.10
2011,07,30,08,00,15.10
2011,07,30,08,01,15.10
2011,07,30,08,02,15.10
2011,07,30,08,03,15.10
2011,07,30,08,04,15.10
2011,07,30,08,05,15.10
2011,07,30,08,06,15.10
2011,07,30,08,07,15.10
2011,07,30,08,08,15.20
2011,07,30,08,09,15.20
2011,07,30,08,11,15.30
2011,07,30,08,12,15.40
2011,07,30,08,13,15.60
2011,07,30,08,15,15.70
2011,07,30,08,16,15.80
2011,07,30,08,17,15.80
2011,07,30,08,18,15.80
2011,07,30,08,19,15.80
2011,07,30,08,20,15.90
2011,07,30,08,21,16.00
2011,07,30,08,22,16.10
2011,07,30,08,23,16.20
2011,07,30,08,24,16.20
2011,07,30,08,25,16.30
2011,07,30,08,26,16.40
2011,07,30,08,28,16.60
2011,07,30,08,29,16.70
2011,07,30,08,30,16.70
2011,07,30,08,32,16.60
2011,07,30,08,33,16.60
2011,07,30,08,34,16.60
2011,07,30,08,35,16.60
2011,07,30,08,36,16.60
2011,07,30,08,38,16.70
2011,07,30,08,39,16.70
2011,07,30,08,40,16.70
2011,07,30,08,41,16.70
2011,07,30,08,43,16.70
2011,07,30,08,44,16.70
2011,07,30,08,45,16.60
2011,07,30,08,46,16.60
2011,07,30,08,48,16.60
2011,07,30,08,49,16.60
2011,07,30,08,50,16.60
2011,07,30,08,51,16.70
2011,07,30,08,52,16.70
2011,07,30,08,54,16.80
2011,07,30,08,55,17.00
2011,07,30,08,56,17.10
2011,07,30,08,57,17.20
2011,07,30,08,59,17.30
2011,07,30,09,00,17.40
2011,07,30,09,01,17.40
2011,07,30,09,02,17.50
2011,07,30,09,04,17.50
2011,07,30,09,05,17.60
2011,07,30,09,06,17.70
2011,07,30,09,07,17.70
2011,07,30,09,09,17.70
2011,07,30,09,10,17.70
2011,07,30,09,11,17.70
2011,07,30,09,12,17.60
2011,07,30,09,13,17.60
2011,07,30,09,15,17.60
2011,07,30,09,16,17.70
2011,07,30,09,17,17.70
2011,07,30,09,18,17.70
2011,07,30,09,19,17.80
2011,07,30,09,20,17.80
2011,07,30,09,21,17.90
2011,07,30,09,22,17.90
2011,07,30,09,23,18.00
2011,07,30,09,24,18.10
2011,07,30,09,26,18.10
2011,07,30,09,27,18.20
2011,07,30,09,28,18.20
2011,07,30,09,29,18.20
2011,07,30,09,30,18.20
2011,07,30,09,31,18.20
2011,07,30,09,32,18.20
2011,07,30,09,33,18.20
2011,07,30,09,34,18.20
2011,07,30,09,35,18.30
2011,07,30,09,36,18.40
2011,07,30,09,37,18.40
2011,07,30,09,38,18.50
2011,07,30,09,39,18.50
2011,07,30,09,40,18.60
2011,07,30,09,41,18.70
2011,07,30,09,42,18.70
2011,07,30,09,44,18.80
2011,07,30,09,45,18.80
2011,07,30,09,46,18.80
2011,07,30,09,47,18.90
2011,07,30,09,48,18.90
2011,07,30,09,49,18.90
2011,07,30,09,50,18.90
2011,07,30,09,51,18.90
2011,07,30,09,52,18.90
2011,07,30,09,53,18.80
2011,07,30,09,54,18.80
2011,07,30,09,55,18.80
2011,07,30,09,56,18.70
2011,07,30,09,57,18.70
2011,07,30,09,58,18.70
2011,07,30,09,59,18.70
2011,07,30,10,00,18.70
2011,07,30,10,01,18.60
2011,07,30,10,02,18.60
2011,07,30,10,03,18.50
2011,07,30,10,04,18.50
2011,07,30,10,05,18.50
2011,07,30,10,06,18.60
2011,07,30,10,07,18.60
2011,07,30,10,09,18.60
2011,07,30,10,10,18.60
2011,07,30,10,11,18.70
2011,07,30,10,12,18.70
2011,07,30,10,14,18.80
2011,07,30,10,15,18.90
2011,07,30,10,16,19.00
2011,07,30,10,17,19.10
2011,07,30,10,18,19.10
2011,07,30,10,19,19.10
2011,07,30,10,20,19.10
2011,07,30,10,21,19.10
2011,07,30,10,22,19.10
2011,07,30,10,23,19.10
2011,07,30,10,24,19.10
2011,07,30,10,25,19.20
2011,07,30,10,26,19.20
2011,07,30,10,27,19.20
2011,07,30,10,28,19.20
2011,07,30,10,29,19.20
2011,07,30,10,30,19.20
2011,07,30,10,31,19.30
2011,07,30,10,32,19.30
2011,07,30,10,33,19.30
2011,07,30,10,34,19.30
2011,07,30,10,35,19.20
2011,07,30,10,36,19.20
2011,07,30,10,37,19.20
2011,07,30,10,38,19.20
2011,07,30,10,39,19.30
2011,07,30,10,41,19.30
2011,07,30,10,42,19.30
2011,07,30,10,43,19.40
2011,07,30,10,44,19.40
2011,07,30,10,45,19.60
2011,07,30,10,46,19.70
2011,07,30,10,47,19.70
2011,07,30,10,48,19.70
2011,07,30,10,50,19.70
2011,07,30,10,51,19.80
2011,07,30,10,52,19.90
2011,07,30,10,53,20.00
2011,07,30,10,54,20.10
2011,07,30,10,55,20.10
2011,07,30,10,56,20.10
2011,07,30,10,57,20.10
2011,07,30,10,58,20.20
2011,07,30,10,59,20.20
2011,07,30,11,00,20.30
2011,07,30,11,02,20.30
2011,07,30,11,03,20.30
2011,07,30,11,04,20.30
2011,07,30,11,05,20.20
2011,07,30,11,07,20.20
2011,07,30,11,08,20.10
2011,07,30,11,09,20.10
2011,07,30,11,10,20.20
2011,07,30,11,12,20.20
2011,07,30,11,13,20.30
2011,07,30,11,14,20.20
2011,07,30,11,15,20.20
2011,07,30,11,17,20.20
2011,07,30,11,18,20.30
2011,07,30,11,19,20.30
2011,07,30,11,20,20.30
2011,07,30,11,22,20.40
2011,07,30,11,23,20.40
2011,07,30,11,24,20.30
2011,07,30,11,26,20.30
2011,07,30,11,27,20.10
2011,07,30,11,28,19.90
2011,07,30,11,29,19.80
2011,07,30,11,30,19.70
2011,07,30,11,32,19.60
2011,07,30,11,33,19.60
2011,07,30,11,34,19.70
2011,07,30,11,35,19.70
2011,07,30,11,36,19.80
2011,07,30,11,38,19.80
2011,07,30,11,39,19.80
2011,07,30,11,40,19.80
2011,07,30,11,41,19.80
2011,07,30,11,43,19.70
2011,07,30,11,44,19.60
2011,07,30,11,45,19.50
2011,07,30,11,47,19.40
2011,07,30,11,48,19.40
2011,07,30,11,49,19.60
2011,07,30,11,51,19.70
2011,07,30,11,52,19.80
2011,07,30,11,53,19.80
2011,07,30,11,55,19.80
2011,07,30,11,56,19.80
2011,07,30,11,57,19.80
2011,07,30,11,58,19.70
2011,07,30,12,00,19.60
2011,07,30,12,01,19.60
2011,07,30,12,02,19.60
2011,07,30,12,03,19.60
2011,07,30,12,04,19.70
2011,07,30,12,06,19.80
2011,07,30,12,07,20.10
2011,07,30,12,08,20.20
2011,07,30,12,09,20.20
2011,07,30,12,11,20.30
2011,07,30,12,12,20.40
2011,07,30,12,13,20.50
2011,07,30,12,14,20.60
2011,07,30,12,15,20.60
2011,07,30,12,17,20.70
2011,07,30,12,18,20.80
2011,07,30,12,19,20.80
2011,07,30,12,21,20.80
2011,07,30,12,22,20.80
2011,07,30,12,23,20.90
2011,07,30,12,24,20.90
2011,07,30,12,25,20.90
2011,07,30,12,27,20.90
2011,07,30,12,28,20.90
2011,07,30,12,29,20.90
2011,07,30,12,30,20.80
2011,07,30,12,31,20.70
2011,07,30,12,32,20.70
2011,07,30,12,33,20.80
2011,07,30,12,34,20.80
2011,07,30,12,35,20.80
2011,07,30,12,36,20.90
2011,07,30,12,37,20.90
2011,07,30,12,38,21.00
2011,07,30,12,39,21.10
2011,07,30,12,41,21.10
2011,07,30,12,42,21.10
2011,07,30,12,43,21.00
2011,07,30,12,44,20.80
2011,07,30,12,45,20.80
2011,07,30,12,46,20.70
2011,07,30,12,47,20.70
2011,07,30,12,48,20.70
2011,07,30,12,49,20.60
2011,07,30,12,50,20.50
2011,07,30,12,51,20.40
2011,07,30,12,52,20.40
2011,07,30,12,53,20.40
2011,07,30,12,54,20.50
2011,07,30,12,55,20.60
2011,07,30,12,56,20.70
2011,07,30,12,57,20.80
2011,07,30,12,58,20.80
2011,07,30,12,59,20.80
2011,07,30,13,00,20.80
2011,07,30,13,01,20.80
2011,07,30,13,02,20.80
2011,07,30,13,03,20.60
2011,07,30,13,04,20.50
2011,07,30,13,05,20.30
2011,07,30,13,06,20.20
2011,07,30,13,07,20.20
2011,07,30,13,08,20.20
2011,07,30,13,09,20.10
2011,07,30,13,10,20.10
2011,07,30,13,11,20.10
2011,07,30,13,12,20.10
2011,07,30,13,13,20.10
2011,07,30,13,14,20.10
2011,07,30,13,15,20.00
2011,07,30,13,16,20.00
2011,07,30,13,17,19.90
2011,07,30,13,18,20.00
2011,07,30,13,19,20.10
2011,07,30,13,20,20.20
2011,07,30,13,21,20.30
2011,07,30,13,22,20.40
2011,07,30,13,23,20.60
2011,07,30,13,24,20.60
2011,07,30,13,25,20.60
2011,07,30,13,26,20.50
2011,07,30,13,27,20.50
2011,07,30,13,28,20.60
2011,07,30,13,30,20.70
2011,07,30,13,31,20.80
2011,07,30,13,32,20.80
2011,07,30,13,33,20.80
2011,07,30,13,34,20.80
2011,07,30,13,35,20.90
2011,07,30,13,36,20.90
2011,07,30,13,37,20.90
2011,07,30,13,38,20.90
2011,07,30,13,39,21.00
2011,07,30,13,40,21.00
2011,07,30,13,41,20.90
2011,07,30,13,42,20.90
2011,07,30,13,43,20.80
2011,07,30,13,44,20.70
2011,07,30,13,45,20.70
2011,07,30,13,46,20.70
2011,07,30,13,47,20.70
2011,07,30,13,48,20.70
2011,07,30,13,49,20.70
2011,07,30,13,50,20.60
2011,07,30,13,51,20.40
2011,07,30,13,52,20.30
2011,07,30,13,53,20.10
2011,07,30,13,54,19.90
2011,07,30,13,55,19.80
2011,07,30,13,57,19.80
2011,07,30,13,58,19.90
2011,07,30,13,59,20.00
2011,07,30,14,00,20.10
2011,07,30,14,01,20.10
2011,07,30,14,02,20.20
2011,07,30,14,03,20.20
2011,07,30,14,04,20.20
2011,07,30,14,05,20.20
2011,07,30,14,07,20.20
2011,07,30,14,08,20.20
2011,07,30,14,09,20.20
2011,07,30,14,10,20.20
2011,07,30,14,12,20.10
2011,07,30,14,13,19.90
2011,07,30,14,14,19.90
2011,07,30,14,15,19.90
2011,07,30,14,16,19.90
2011,07,30,14,18,19.90
2011,07,30,14,19,19.70
2011,07,30,14,20,19.80
2011,07,30,14,21,19.80
2011,07,30,14,22,19.80
2011,07,30,14,23,19.80
2011,07,30,14,24,19.90
2011,07,30,14,25,19.90
2011,07,30,14,26,19.90
2011,07,30,14,27,19.80
2011,07,30,14,28,19.80
2011,07,30,14,29,19.80
2011,07,30,14,30,19.80
2011,07,30,14,32,19.80
2011,07,30,14,33,19.70
2011,07,30,14,34,19.40
2011,07,30,14,35,19.30
2011,07,30,14,37,19.10
2011,07,30,14,38,18.80
2011,07,30,14,39,18.80
2011,07,30,14,40,18.80
2011,07,30,14,42,18.70
2011,07,30,14,43,18.60
2011,07,30,14,44,18.50
2011,07,30,14,45,18.40
2011,07,30,14,46,18.30
2011,07,30,14,48,18.30
2011,07,30,14,49,18.40
2011,07,30,14,50,18.40
2011,07,30,14,51,18.60
2011,07,30,14,53,18.60
2011,07,30,14,54,18.60
2011,07,30,14,55,18.60
2011,07,30,14,56,18.60
2011,07,30,14,57,18.60
2011,07,30,14,59,18.70
2011,07,30,15,00,18.70
2011,07,30,15,01,18.70
2011,07,30,15,02,18.60
2011,07,30,15,03,18.60
2011,07,30,15,05,18.60
2011,07,30,15,06,18.70
2011,07,30,15,07,18.80
2011,07,30,15,09,18.80
2011,07,30,15,10,18.90
2011,07,30,15,11,19.00
2011,07,30,15,12,19.10
2011,07,30,15,14,19.20
2011,07,30,15,15,19.30
2011,07,30,15,16,19.20
2011,07,30,15,17,19.20
2011,07,30,15,19,19.30
2011,07,30,15,20,19.30
2011,07,30,15,21,19.40
2011,07,30,15,22,19.40
2011,07,30,15,23,19.40
2011,07,30,15,25,19.50
2011,07,30,15,26,19.60
2011,07,30,15,27,19.60
2011,07,30,15,28,19.60
2011,07,30,15,30,19.60
2011,07,30,15,31,19.60
2011,07,30,15,32,19.60
2011,07,30,15,33,19.60
2011,07,30,15,35,19.70
2011,07,30,15,36,19.80
2011,07,30,15,37,19.80
2011,07,30,15,39,19.80
2011,07,30,15,40,19.80
2011,07,30,15,41,19.90
2011,07,30,15,42,20.10
2011,07,30,15,44,20.20
2011,07,30,15,45,20.30
2011,07,30,15,46,20.40
2011,07,30,15,47,20.60
2011,07,30,15,48,20.70
2011,07,30,15,50,20.80
2011,07,30,15,51,20.90
2011,07,30,15,52,21.00
2011,07,30,15,53,21.20
2011,07,30,15,55,21.30
2011,07,30,15,56,21.40
2011,07,30,15,57,21.60
2011,07,30,15,59,21.70
2011,07,30,16,00,21.80
2011,07,30,16,01,21.80
2011,07,30,16,02,21.80
2011,07,30,16,04,21.80
2011,07,30,16,05,21.80
2011,07,30,16,06,21.80
2011,07,30,16,07,21.80
2011,07,30,16,09,21.80
2011,07,30,16,10,21.70
2011,07,30,16,11,21.70
2011,07,30,16,13,21.60
2011,07,30,16,14,21.60
2011,07,30,16,15,21.40
2011,07,30,16,16,21.40
2011,07,30,16,17,21.40
2011,07,30,16,18,21.40
2011,07,30,16,19,21.50
2011,07,30,16,20,21.60
2011,07,30,16,21,21.70
2011,07,30,16,22,21.80
2011,07,30,16,24,21.90
2011,07,30,16,25,21.90
2011,07,30,16,26,22.00
2011,07,30,16,27,22.00
2011,07,30,16,28,22.00
2011,07,30,16,30,22.00
2011,07,30,16,31,21.90
2011,07,30,16,32,21.90
2011,07,30,16,33,21.80
2011,07,30,16,35,21.70
2011,07,30,16,36,21.60
2011,07,30,16,37,21.40
2011,07,30,16,38,21.30
2011,07,30,16,40,21.30
2011,07,30,16,41,21.30
2011,07,30,16,42,21.40
2011,07,30,16,43,21.40
2011,07,30,16,45,21.60
2011,07,30,16,46,21.60
2011,07,30,16,47,21.60
2011,07,30,16,48,21.60
2011,07,30,16,50,21.60
2011,07,30,16,51,21.60
2011,07,30,16,52,21.60
2011,07,30,16,53,21.60
2011,07,30,16,54,21.60
2011,07,30,16,56,21.60
2011,07,30,16,57,21.60
2011,07,30,16,58,21.60
2011,07,30,17,00,21.70
2011,07,30,17,01,21.70
2011,07,30,17,02,21.80
2011,07,30,17,03,21.90
2011,07,30,17,05,22.00
2011,07,30,17,06,22.00
2011,07,30,17,07,22.00
2011,07,30,17,08,22.00
2011,07,30,17,09,22.10
2011,07,30,17,11,22.20
2011,07,30,17,12,22.30
2011,07,30,17,13,22.40
2011,07,30,17,14,22.40
2011,07,30,17,15,22.40
2011,07,30,17,16,22.30
2011,07,30,17,17,22.30
2011,07,30,17,18,22.30
2011,07,30,17,20,22.30
2011,07,30,17,21,22.30
2011,07,30,17,22,22.30
2011,07,30,17,23,22.40
2011,07,30,17,25,22.60
2011,07,30,17,26,22.80
2011,07,30,17,27,23.00
2011,07,30,17,28,23.20
2011,07,30,17,30,23.30
2011,07,30,17,31,23.30
2011,07,30,17,32,23.30
2011,07,30,17,33,23.40
2011,07,30,17,35,23.40
2011,07,30,17,36,23.50
2011,07,30,17,37,23.60
2011,07,30,17,38,23.60
2011,07,30,17,39,23.70
2011,07,30,17,40,23.90
2011,07,30,17,41,24.10
2011,07,30,17,42,24.30
2011,07,30,17,43,24.40
2011,07,30,17,44,24.60
2011,07,30,17,45,24.70
2011,07,30,17,46,24.80
2011,07,30,17,47,24.80
2011,07,30,17,48,24.80
2011,07,30,17,49,24.90
2011,07,30,17,50,24.80
2011,07,30,17,51,24.80
2011,07,30,17,52,24.80
2011,07,30,17,54,24.80
2011,07,30,17,55,24.80
2011,07,30,17,56,24.80
2011,07,30,17,57,24.80
2011,07,30,17,59,24.80
2011,07,30,18,00,24.80
2011,07,30,18,01,24.80
2011,07,30,18,03,24.80
2011,07,30,18,04,24.70
2011,07,30,18,05,24.60
2011,07,30,18,06,24.60
2011,07,30,18,07,24.50
2011,07,30,18,09,24.50
2011,07,30,18,10,24.50
2011,07,30,18,11,24.60
2011,07,30,18,12,24.60
2011,07,30,18,13,24.70
2011,07,30,18,15,24.70
2011,07,30,18,16,24.80
2011,07,30,18,17,24.80
2011,07,30,18,18,24.70
2011,07,30,18,19,24.70
2011,07,30,18,20,24.70
2011,07,30,18,21,24.70
2011,07,30,18,22,24.60
2011,07,30,18,23,24.70
2011,07,30,18,24,24.70
2011,07,30,18,25,24.70
2011,07,30,18,26,24.70
2011,07,30,18,27,24.70
2011,07,30,18,28,24.70
2011,07,30,18,29,24.60
2011,07,30,18,30,24.60
2011,07,30,18,31,24.50
2011,07,30,18,32,24.40
2011,07,30,18,33,24.30
2011,07,30,18,34,24.30
2011,07,30,18,35,24.20
2011,07,30,18,37,24.20
2011,07,30,18,38,23.90
2011,07,30,18,39,23.80
2011,07,30,18,40,23.70
2011,07,30,18,41,23.70
2011,07,30,18,42,23.60
2011,07,30,18,43,23.60
2011,07,30,18,44,23.60
2011,07,30,18,45,23.50
2011,07,30,18,46,23.50
2011,07,30,18,47,23.50
2011,07,30,18,48,23.50
2011,07,30,18,49,23.30
2011,07,30,18,50,23.10
2011,07,30,18,52,22.80
2011,07,30,18,53,22.30
2011,07,30,18,54,22.10
2011,07,30,18,55,21.90
2011,07,30,18,56,21.80
2011,07,30,18,57,21.60
2011,07,30,18,58,21.30
2011,07,30,18,59,21.20
2011,07,30,19,01,21.20
2011,07,30,19,02,21.10
2011,07,30,19,03,21.10
2011,07,30,19,04,21.10
2011,07,30,19,05,21.10
2011,07,30,19,06,21.10
2011,07,30,19,07,21.10
2011,07,30,19,08,21.10
2011,07,30,19,09,21.10
2011,07,30,19,11,21.30
2011,07,30,19,12,21.60
2011,07,30,19,13,21.80
2011,07,30,19,14,22.10
2011,07,30,19,15,22.20
2011,07,30,19,16,22.40
2011,07,30,19,17,22.60
2011,07,30,19,18,22.70
2011,07,30,19,19,22.80
2011,07,30,19,20,22.80
2011,07,30,19,21,22.80
2011,07,30,19,22,22.80
2011,07,30,19,24,22.80
2011,07,30,19,25,22.80
2011,07,30,19,26,22.80
2011,07,30,19,27,22.80
2011,07,30,19,29,22.70
2011,07,30,19,30,22.70
2011,07,30,19,31,22.60
2011,07,30,19,32,22.60
2011,07,30,19,33,22.60
2011,07,30,19,34,22.60
2011,07,30,19,35,22.50
2011,07,30,19,36,22.50
2011,07,30,19,37,22.40
2011,07,30,19,38,22.40
2011,07,30,19,40,22.40
2011,07,30,19,41,22.40
2011,07,30,19,42,22.40
2011,07,30,19,43,22.40
2011,07,30,19,44,22.40
2011,07,30,19,45,22.20
2011,07,30,19,46,22.00
2011,07,30,19,47,21.80
2011,07,30,19,49,21.50
2011,07,30,19,50,21.20
2011,07,30,19,51,20.90
2011,07,30,19,52,20.80
2011,07,30,19,53,20.70
2011,07,30,19,54,20.60
2011,07,30,19,55,20.50
2011,07,30,19,56,20.40
2011,07,30,19,57,20.30
2011,07,30,19,58,20.20
2011,07,30,19,59,20.10
2011,07,30,20,00,20.00
2011,07,30,20,01,20.00
2011,07,30,20,03,20.00
2011,07,30,20,04,20.10